DECAYED
Showing default

OSM-1 CICERO, 46294 (Decayed)

Orbit data source: Space-Track

OSM-1 CICERO, 46294 was a Spanish payload satellite in LEO that was launched on Thu, 03 Sep 2020 UTC via a VEGA launch vehicle from the French Guiana (FRGUI). Payload-class satellites include a variety of spacecraft equipped with specific instruments for various scientific and technological missions. These include communications satellites like Starlink; space stations such as the ISS; scientific satellites like the Hubble; Earth observation satellites from companies like Planet Labs, Umbra, and HawkEye 360; GPS; miniature CubeSats for education and research; and military/defense satellites.

Not visible in the next 10 days
Identifier
46294, 2020-061Y
Orbit
Decayed
Country
Flag of ESES / SPN
Related business
Manufacturer
OSM/TYVAK
Mission
Decayed Commercial Meteo Radio Occ.
Bus & Motor
CUBESAT 6U, Unknown motor
Mass
10 kg wet, 10 kg dry
Launch date (UTC)
2020-09-03 (5 years ago)
Launch vehicle
VEGA
Launch site
French Guiana (FRGUI)
Object type
Payload
Rocket body
Debris
Shape & HBR
Box + 2 Pan, 0.3 m
Radar Cross Section
0.079 m², Medium (>0.1 m² and < 1m²)

Expand to show TLE details & history
Last TLE update: 2 months ago

TLE from 2 months ago
0 OSM-1 CICERO
1 46294U 20061Y   25242.97109590  .10285938  24976-5  36111-3 0  9993
2 46294  97.2772 325.5351 0011392 261.6893  98.3117 16.43414841277805
Epoch: 2025-08-30T23:18Z
TLE epoch observation values (Epoch: 2025-08-30T23:18:22.685Z)
Latitude
-0.00004°
Longitude
-3.45716°
Altitude
161.078 km
Speed
7.809 km/s
True Right ascension
21h 42m 08s
True Declination
0° 00' 00"
Sunlit
Object was in full shadow at epoch
Visualization orbit readout
Latitude
Unknown
Longitude
Unknown
Altitude
Unknown
Speed
Unknown
Apparent Right ascension
Unknown
Apparent Declination
Unknown
Sunlit
N/A
Visualization observer readout
Local Sidereal Time
06:39:19
Azimuth
Unknown
Elevation
Unknown
Doppler factor
Unknown
Orbital elements
Apogee altitude
160.973 km
Perigee altitude
146.091 km
Semi-major axis
6,531.669 km
Eccentricity
0.00114
Inclination
97.2772°
RAAN
325.5351°
Arg. of periapsis
261.6893°
True anomaly
98.44084°
Mean anomaly
98.3117°
Eccentric anomaly
98.37628°
Mean motion
4.11156 °/min
Orbital period
87.56 mins
BSTAR
0.00036111
Loading maneuver chart data...
Computing Atmospheric mass density...
Loading historical data...
Loading historical data...
Loading historical data...
Loading historical data...
Loading historical data...
Loading historical data...
Loading historical data...

Documentation

Showing up to 5 results
|